Location: Washington
(38.8950°N, 77.0370°W)
Time: 12:10:57
(UTC-04:00)

ISS - All Passes

Search period start: 05 May 2016 00:00
Search period end: 15 May 2016 00:00
Orbit: 402 x 405 km, 51.6° (Epoch: 05 May)

Date Brightness Start Highest point End Pass type
(mag) Time Alt. Az. Time Alt. Az. Time Alt. Az.
05 May - 05:34:54 10° SSE 05:36:26 13° SE 05:37:58 10° E visible
05 May - 07:09:18 10° WSW 07:12:31 60° NW 07:15:46 10° NE daylight
05 May - 08:47:46 10° NW 08:49:32 14° NNW 08:51:18 10° NNE daylight
05 May - 12:02:23 10° NNW 12:04:42 18° NNE 12:07:02 10° ENE daylight
05 May - 13:38:13 10° NW 13:41:29 75° SW 13:44:44 10° SE daylight
06 May - 06:16:47 10° SW 06:20:00 66° SE 06:23:15 10° ENE daylight
06 May - 07:54:20 10° WNW 07:56:45 19° NNW 07:59:09 10° NNE daylight
06 May - 11:10:15 10° NNW 11:11:54 13° NNE 11:13:34 10° NE daylight
06 May - 12:45:44 10° NW 12:48:57 54° NE 12:52:09 10° ESE daylight
06 May - 14:23:15 10° W 14:25:05 14° SW 14:26:54 10° SSW daylight
07 May - 05:24:38 10° SSW 05:27:34 31° SE 05:30:31 10° ENE visible
07 May - 07:01:08 10° W 07:04:01 28° NNW 07:06:54 10° NNE daylight
07 May - 08:40:53 10° NNW 08:41:21 10° N 08:41:47 10° N daylight
07 May - 10:18:19 10° N 10:19:02 11° N 10:19:45 10° NNE daylight
07 May - 11:53:22 10° NW 11:56:19 30° NNE 11:59:16 10° E daylight
07 May - 13:29:53 10° WNW 13:32:44 28° SW 13:35:34 10° SSE daylight
08 May - 04:33:07 10° S 04:35:12 16° SE 04:37:17 10° E visible
08 May - 06:08:12 10° WSW 06:11:22 48° NW 06:14:34 10° NE daylight
08 May - 07:46:56 10° NW 07:48:28 13° NNW 07:49:59 10° NNE daylight
08 May - 11:01:06 10° NNW 11:03:36 20° NNE 11:06:06 10° ENE daylight
08 May - 12:37:04 10° WNW 12:40:18 58° SW 12:43:29 10° SE daylight
09 May - 05:15:33 10° SW 05:18:48 84° SE 05:22:05 10° NE visible
09 May - 06:53:24 10° WNW 06:55:38 17° NNW 06:57:51 10° NNE daylight
09 May - 10:08:55 10° NNW 10:10:49 14° NNE 10:12:41 10° NE daylight
09 May - 11:44:30 10° NW 11:47:46 68° NE 11:51:00 10° ESE daylight
09 May - 13:22:43 10° WSW 13:23:48 11° SW 13:24:53 10° SSW daylight
10 May - 04:23:14 10° SSW 04:26:18 39° SE 04:29:24 10° ENE visible
10 May - 06:00:07 10° W 06:02:52 24° NNW 06:05:36 10° NNE daylight
10 May - 09:16:51 10° N 09:17:56 11° NNE 09:19:00 10° NNE daylight
10 May - 10:52:05 10° NW 10:55:08 36° NNE 10:58:11 10° E daylight
10 May - 12:28:50 10° WNW 12:31:27 22° SW 12:34:03 10° S daylight
11 May - 03:31:27 10° S 03:33:53 20° SE 03:36:20 10° E visible
11 May - 05:07:03 10° WSW 05:10:09 40° NNW 05:13:16 10° NE visible
11 May - 06:46:04 10° NW 06:47:19 12° NNW 06:48:35 10° N daylight
11 May - 09:59:45 10° NNW 10:02:25 22° NNE 10:05:04 10° E daylight
11 May - 11:35:52 10° WNW 11:39:01 45° SW 11:42:08 10° SSE daylight
12 May - 04:14:16 10° SW 04:17:31 77° NW 04:20:48 10° NE visible
12 May - 05:52:25 10° WNW 05:54:26 15° NNW 05:56:27 10° NNE daylight
12 May - 09:07:30 10° NNW 09:09:37 16° NNE 09:11:43 10° ENE daylight
12 May - 10:43:12 10° NW 10:46:29 85° NE 10:49:45 10° SE daylight
13 May - 03:21:49 10° SSW 03:24:59 50° SE 03:28:10 10° ENE visible
13 May - 04:59:01 10° WNW 05:01:37 21° NNW 05:04:13 10° NNE visible
13 May - 08:15:22 10° N 08:16:44 12° NNE 08:18:06 10° NE daylight
13 May - 09:50:43 10° NW 09:53:52 43° NE 09:56:59 10° ESE daylight
13 May - 11:27:46 10° W 11:30:05 18° SW 11:32:23 10° S daylight
14 May - 02:29:48 10° S 02:32:31 24° SE 02:35:14 10° ENE visible
14 May - 04:05:51 10° W 04:08:52 33° NNW 04:11:53 10° NE visible
14 May - 05:45:09 10° NNW 05:46:05 11° NNW 05:47:02 10° N daylight
14 May - 08:58:20 10° NNW 09:01:09 26° NNE 09:03:56 10° E daylight
14 May - 10:34:37 10° WNW 10:37:39 36° SW 10:40:40 10° SSE daylight
